LSGGLSGS

Guest
Details From LSGG - Geneva
To LSGS - Sion
Flight Number -
Tags decoded
Created
Modified
Stats Distance 51 nm / 94 km
Max Altitude 0 ft / 0 m
Waypoints 2
Social Downloads 0
Likes 0
Share VATSIM

Download

Looking for another format? Having issues loading an existing format? Contact us
Advertisement - Login to hide

Notes

Requested: LSGG 46 006 LSGS Unmatched points: 46 006

Route

LSGG LSGS

ID Type Via Altitude Latitude Longitude Leg Dist Tot Dist Heading (true) Name
O LSGG APT - 0 ft / 0 m 46.23775˚ 6.10617˚ - 0 nm - Geneva
O LSGS APT - 0 ft / 0 m 46.21895˚ 7.32409˚ 50 nm 50 nm 91° / 92° Sion

Altitude Profile

Advertisement - Login to hide

LSGG

Details ICAO LSGG (GVA)
Name Geneva
Region Switzerland
Timezone Europe/Zurich (UTC+2.0)
Stats Elevation 1,410 ft / 430 m (AMSL)
Location 46.237755° 6.106173°
Runways 2
Magnetic Variation 1.719° E

METAR

LSGG 190320Z AUTO VRB01KT 9999 NSC 08/08 Q1015 NOSIG

Decode

TAF

TAF LSGG 190225Z 1903/2009 VRB03KT CAVOK TX19/1914Z TN08/1905Z TN08/2005Z

Decode

Departure Runways

ID Width Length Bearing (true) Bearing (mag) Surface Threshold Offset Overrun Length
05 180 ft / 55 m 12,796 ft / 3,900 m 45.43° 43.71° Concrete 1,079 ft / 329 m 66 ft / 20 m
05L 98 ft / 30 m 2,701 ft / 823 m 45.44° 43.72° Grass 610 ft / 186 m 0 ft / 0 m
23 180 ft / 55 m 12,796 ft / 3,900 m 225.45° 223.73° Concrete 0 ft / 0 m 66 ft / 20 m
23R 98 ft / 30 m 2,701 ft / 823 m 225.45° 223.73° Grass 997 ft / 304 m 0 ft / 0 m

LSGS

Details ICAO LSGS (SIR)
Name Sion
Region Switzerland
Timezone Europe/Zurich (UTC+2.0)
Stats Elevation 1,585 ft / 483 m (AMSL)
Location 46.218954° 7.324090°
Runways 2
Magnetic Variation 2.024° E

METAR

LSGS 190320Z AUTO 08004KT 9999 FEW110 09/02 Q1017

Decode

TAF

Not found

Destination Runways

ID Width Length Bearing (true) Bearing (mag) Surface Threshold Offset Overrun Length
07L 98 ft / 30 m 2,167 ft / 661 m 72.83° 70.81° Grass 0 ft / 0 m 0 ft / 0 m
07R 131 ft / 40 m 6,605 ft / 2,013 m 72.84° 70.82° Asphalt 164 ft / 50 m 627 ft / 191 m
25L 131 ft / 40 m 6,605 ft / 2,013 m 252.86° 250.84° Asphalt 164 ft / 50 m 627 ft / 191 m
25R 98 ft / 30 m 2,167 ft / 661 m 252.83° 250.81° Grass 328 ft / 100 m 0 ft / 0 m

Approach Navaids

Runway Type Ident Frequency Range Bearing (true) Bearing (mag) Slope Elevation
25L Localiser ISI 110.70 MHz 45 nm / 83 km 246.48° 244.45° - 1,609 ft / 490 m (AMSL)
25L Glidescope ISI 110.70 MHz 45 nm / 83 km 246.48° 244.45° 6.00° 1,595 ft / 486 m (AMSL)
25L DME ISI 108.35 MHz 45 nm / 83 km - - - 1,609 ft / 490 m (AMSL)

Popular Alternatives